sat.trackr.live / text

‹ back to catalog

STARLINK-6046

NORAD 56792 · 2023-078AB

PAYLOAD ACTIVE UNKNOWN

§ Identity

Operator
Country
US
Launch date
2023-05-31
Launch site
AFWTR
Launch vehicle
Mass (kg)
RCS (m²)

Purposes: comms

External: N2YO · Heavens-Above · Gunter

§ Orbital elements

Epoch: 2026-09-20T06:37:30.767520Z

Period
96.11 min
Inclination
69.9995°
Eccentricity
0.0002811
Mean motion
14.98330839 rev/d
Perigee alt
570.1 km
Apogee alt
574.0 km
Semi-major
6,950.2 km
B*
2.7678e-5
RAAN
213.9836°
Arg perigee
272.2108°
Mean anomaly
87.8729°
Rev number
18,182

§ Raw data

STARLINK-60461 56792U 23078AB  26263.27605055  .00000237  00000+0  27678-4 0  99932 56792  69.9995 213.9836 0002811 272.2108  87.8729 14.98330839181823

JSON: /api/v1/satellites/56792 · /tle

For live sub-satellite position, see the globe view (requires WebGL).

§ Visibility from observer

Set your observer location to see the next 7 days of passes ≥ 10°. The values pass through the URL so the page stays shareable.

No JS? Fill the form by hand. The geolocation button needs JavaScript.